Location: Cahas Mountain Overlook
(37.0833°N, 80.1000°W)
Time: 19:46:40
(UTC-05:00)

Vanguard 3 - Pass Details

Date: 13 December 2023
Orbit: 508 x 3239 km, 33.4° (Epoch: 23 February)

Event Time Altitude Azimuth Distance (km) Brightness Sun altitude
Rises 18:33:05 0° 232° (SW) 7,141 13.3 -17.2°
Reaches altitude 10° 18:38:00 10° 229° (SW) 6,166 12.6 -18.2°
Maximum altitude 18:56:49 57° 158° (SSE) 3,181 10.0 -21.8°
Enters shadow 19:05:14 30° 96° (E) 3,627 9.9 -23.4°
